SKYMED 3

导读

SKYMED 3(COSMO-SkyMed)是意大利航天局与国防部联合研发的高分辨率合成孔径雷达卫星,于2008年10月25日发射升空,属于COSMO-SkyMed星座的第三颗卫星。它运行在近极地太阳同步轨道,配备X波段SAR雷达,最高分辨率达1米,可全天候、全天时对地观测。主要服务于灾害监测、资源测绘、海事管理与国防侦察等领域,为地中海环境治理及全球应急响应提供关键遥感数据支撑。

基本信息
目录编号:
33412
目录名称:
SKYMED 3
国际标识:
2008-054A
轨道中心:
EARTH
卫星名称:
SKYMED 3
卫星全名:
--
卫星状态:
在轨 (已飞行6471 天)
发射日期:
2008-10-25 UTC
国别 :
意大利 (IT)
星等 :
--
轨道信息
数据来源 国际轨道数据 AOE轨道数据
星历时间 2026-07-14T05:37:44+0800
8小时前
查看轨道信息
2026-07-11T00:00:00+0800
3天前
查看轨道信息
半长轴 6923.184km 6923.22km
偏心率 0.001568 0.0015626
轨道倾角 97.825° 97.825°
近地点辐角 170.615° 180.775°
升交点赤经 53.915° 50.628°
平近点角 189.537° 281.162°
近地点 534.191km 534.264km
远地点 555.903km 555.902km
周期 95.547分钟 95.548分钟
每日圈数 15.071067 15.07095
详细信息
使用方式:
暂无
2D轨道图
3D轨道图
轨道高度分析图
轨道倾角分析图
轨道综合分析图
查看轨道综合分析图